Year,Month,Day,Hour,Minute,Value (Times are PST for temperature in C)
2016,07,05,00,00,14.30
2016,07,05,00,01,14.30
2016,07,05,00,02,14.30
2016,07,05,00,03,14.30
2016,07,05,00,04,14.30
2016,07,05,00,05,14.30
2016,07,05,00,06,14.30
2016,07,05,00,07,14.30
2016,07,05,00,08,14.30
2016,07,05,00,09,14.30
2016,07,05,00,10,14.30
2016,07,05,00,11,14.20
2016,07,05,00,12,14.20
2016,07,05,00,13,14.20
2016,07,05,00,14,14.20
2016,07,05,00,15,14.20
2016,07,05,00,16,14.20
2016,07,05,00,17,14.20
2016,07,05,00,18,14.20
2016,07,05,00,19,14.20
2016,07,05,00,20,14.20
2016,07,05,00,21,14.20
2016,07,05,00,22,14.20
2016,07,05,00,23,14.20
2016,07,05,00,24,14.20
2016,07,05,00,25,14.20
2016,07,05,00,26,14.20
2016,07,05,00,27,14.20
2016,07,05,00,28,14.20
2016,07,05,00,29,14.20
2016,07,05,00,30,14.20
2016,07,05,00,31,14.20
2016,07,05,00,32,14.20
2016,07,05,00,33,14.20
2016,07,05,00,34,14.20
2016,07,05,00,35,14.20
2016,07,05,00,36,14.20
2016,07,05,00,37,14.20
2016,07,05,00,38,14.20
2016,07,05,00,39,14.20
2016,07,05,00,40,14.20
2016,07,05,00,41,14.20
2016,07,05,00,42,14.20
2016,07,05,00,43,14.20
2016,07,05,00,44,14.20
2016,07,05,00,45,14.20
2016,07,05,00,46,14.20
2016,07,05,00,47,14.20
2016,07,05,00,48,14.20
2016,07,05,00,49,14.20
2016,07,05,00,50,14.20
2016,07,05,00,51,14.20
2016,07,05,00,52,14.20
2016,07,05,00,53,14.20
2016,07,05,00,54,14.20
2016,07,05,00,55,14.20
2016,07,05,00,56,14.20
2016,07,05,00,57,14.20
2016,07,05,00,58,14.20
2016,07,05,00,59,14.20
2016,07,05,01,00,14.20
2016,07,05,01,01,14.20
2016,07,05,01,02,14.20
2016,07,05,01,03,14.20
2016,07,05,01,04,14.20
2016,07,05,01,05,14.10
2016,07,05,01,06,14.10
2016,07,05,01,07,14.10
2016,07,05,01,08,14.10
2016,07,05,01,09,14.10
2016,07,05,01,10,14.10
2016,07,05,01,11,14.10
2016,07,05,01,12,14.10
2016,07,05,01,13,14.10
2016,07,05,01,14,14.10
2016,07,05,01,15,14.00
2016,07,05,01,16,14.00
2016,07,05,01,17,14.00
2016,07,05,01,18,14.00
2016,07,05,01,19,14.00
2016,07,05,01,20,13.90
2016,07,05,01,21,13.90
2016,07,05,01,22,13.90
2016,07,05,01,23,13.90
2016,07,05,01,24,13.90
2016,07,05,01,25,13.90
2016,07,05,01,26,13.90
2016,07,05,01,27,13.90
2016,07,05,01,28,13.90
2016,07,05,01,29,13.90
2016,07,05,01,30,13.90
2016,07,05,01,31,13.90
2016,07,05,01,32,13.90
2016,07,05,01,33,13.90
2016,07,05,01,34,13.80
2016,07,05,01,35,13.80
2016,07,05,01,36,13.80
2016,07,05,01,37,13.80
2016,07,05,01,38,13.80
2016,07,05,01,39,13.80
2016,07,05,01,40,13.80
2016,07,05,01,41,13.80
2016,07,05,01,42,13.80
2016,07,05,01,43,13.80
2016,07,05,01,44,13.70
2016,07,05,01,45,13.70
2016,07,05,01,46,13.70
2016,07,05,01,47,13.70
2016,07,05,01,48,13.70
2016,07,05,01,49,13.70
2016,07,05,01,50,13.70
2016,07,05,01,51,13.70
2016,07,05,01,52,13.70
2016,07,05,01,53,13.70
2016,07,05,01,54,13.70
2016,07,05,01,55,13.70
2016,07,05,01,56,13.70
2016,07,05,01,57,13.70
2016,07,05,01,58,13.70
2016,07,05,01,59,13.70
2016,07,05,02,00,13.60
2016,07,05,02,01,13.60
2016,07,05,02,02,13.60
2016,07,05,02,03,13.60
2016,07,05,02,04,13.60
2016,07,05,02,05,13.60
2016,07,05,02,06,13.60
2016,07,05,02,07,13.60
2016,07,05,02,08,13.60
2016,07,05,02,09,13.60
2016,07,05,02,10,13.60
2016,07,05,02,11,13.60
2016,07,05,02,12,13.60
2016,07,05,02,13,13.60
2016,07,05,02,14,13.60
2016,07,05,02,15,13.50
2016,07,05,02,16,13.50
2016,07,05,02,17,13.50
2016,07,05,02,18,13.50
2016,07,05,02,19,13.50
2016,07,05,02,20,13.50
2016,07,05,02,21,13.50
2016,07,05,02,22,13.50
2016,07,05,02,23,13.50
2016,07,05,02,24,13.50
2016,07,05,02,25,13.50
2016,07,05,02,26,13.50
2016,07,05,02,27,13.50
2016,07,05,02,28,13.50
2016,07,05,02,29,13.50
2016,07,05,02,30,13.50
2016,07,05,02,31,13.50
2016,07,05,02,32,13.50
2016,07,05,02,33,13.50
2016,07,05,02,34,13.60
2016,07,05,02,35,13.50
2016,07,05,02,36,13.50
2016,07,05,02,37,13.50
2016,07,05,02,38,13.50
2016,07,05,02,39,13.60
2016,07,05,02,40,13.60
2016,07,05,02,41,13.60
2016,07,05,02,42,13.60
2016,07,05,02,43,13.60
2016,07,05,02,44,13.60
2016,07,05,02,45,13.70
2016,07,05,02,46,13.70
2016,07,05,02,47,13.70
2016,07,05,02,48,13.70
2016,07,05,02,49,13.70
2016,07,05,02,50,13.70
2016,07,05,02,51,13.70
2016,07,05,02,52,13.70
2016,07,05,02,53,13.70
2016,07,05,02,54,13.70
2016,07,05,02,55,13.70
2016,07,05,02,56,13.70
2016,07,05,02,57,13.70
2016,07,05,02,58,13.70
2016,07,05,02,59,13.70
2016,07,05,03,00,13.70
2016,07,05,03,01,13.70
2016,07,05,03,02,13.70
2016,07,05,03,03,13.70
2016,07,05,03,04,13.70
2016,07,05,03,05,13.70
2016,07,05,03,06,13.70
2016,07,05,03,07,13.70
2016,07,05,03,08,13.70
2016,07,05,03,09,13.70
2016,07,05,03,10,13.70
2016,07,05,03,11,13.70
2016,07,05,03,12,13.70
2016,07,05,03,13,13.60
2016,07,05,03,14,13.60
2016,07,05,03,15,13.60
2016,07,05,03,16,13.60
2016,07,05,03,17,13.60
2016,07,05,03,18,13.60
2016,07,05,03,19,13.60
2016,07,05,03,20,13.60
2016,07,05,03,21,13.60
2016,07,05,03,22,13.60
2016,07,05,03,23,13.60
2016,07,05,03,24,13.60
2016,07,05,03,25,13.50
2016,07,05,03,26,13.50
2016,07,05,03,27,13.50
2016,07,05,03,28,13.50
2016,07,05,03,29,13.50
2016,07,05,03,30,13.40
2016,07,05,03,31,13.40
2016,07,05,03,32,13.40
2016,07,05,03,33,13.40
2016,07,05,03,34,13.40
2016,07,05,03,35,13.40
2016,07,05,03,36,13.40
2016,07,05,03,37,13.40
2016,07,05,03,38,13.40
2016,07,05,03,39,13.40
2016,07,05,03,40,13.40
2016,07,05,03,41,13.30
2016,07,05,03,42,13.30
2016,07,05,03,43,13.30
2016,07,05,03,44,13.30
2016,07,05,03,45,13.30
2016,07,05,03,46,13.30
2016,07,05,03,47,13.30
2016,07,05,03,48,13.30
2016,07,05,03,49,13.30
2016,07,05,03,50,13.30
2016,07,05,03,51,13.30
2016,07,05,03,52,13.30
2016,07,05,03,53,13.30
2016,07,05,03,54,13.20
2016,07,05,03,55,13.20
2016,07,05,03,56,13.20
2016,07,05,03,57,13.20
2016,07,05,03,58,13.20
2016,07,05,03,59,13.20
2016,07,05,04,00,13.20
2016,07,05,04,01,13.20
2016,07,05,04,02,13.20
2016,07,05,04,03,13.20
2016,07,05,04,04,13.20
2016,07,05,04,05,13.20
2016,07,05,04,06,13.20
2016,07,05,04,07,13.10
2016,07,05,04,08,13.10
2016,07,05,04,09,13.10
2016,07,05,04,10,13.10
2016,07,05,04,11,13.10
2016,07,05,04,12,13.10
2016,07,05,04,13,13.10
2016,07,05,04,14,13.00
2016,07,05,04,15,13.00
2016,07,05,04,16,13.00
2016,07,05,04,17,12.90
2016,07,05,04,18,12.90
2016,07,05,04,19,12.80
2016,07,05,04,20,12.80
2016,07,05,04,21,12.80
2016,07,05,04,22,12.70
2016,07,05,04,23,12.70
2016,07,05,04,24,12.70
2016,07,05,04,25,12.70
2016,07,05,04,26,12.60
2016,07,05,04,27,12.60
2016,07,05,04,28,12.50
2016,07,05,04,29,12.50
2016,07,05,04,30,12.50
2016,07,05,04,31,12.40
2016,07,05,04,32,12.40
2016,07,05,04,33,12.40
2016,07,05,04,34,12.40
2016,07,05,04,35,12.30
2016,07,05,04,36,12.30
2016,07,05,04,37,12.30
2016,07,05,04,38,12.30
2016,07,05,04,39,12.30
2016,07,05,04,40,12.30
2016,07,05,04,41,12.30
2016,07,05,04,42,12.30
2016,07,05,04,43,12.30
2016,07,05,04,44,12.30
2016,07,05,04,45,12.30
2016,07,05,04,46,12.30
2016,07,05,04,47,12.30
2016,07,05,04,48,12.30
2016,07,05,04,49,12.30
2016,07,05,04,50,12.30
2016,07,05,04,51,12.30
2016,07,05,04,52,12.30
2016,07,05,04,53,12.30
2016,07,05,04,54,12.40
2016,07,05,04,55,12.40
2016,07,05,04,56,12.50
2016,07,05,04,57,12.50
2016,07,05,04,58,12.60
2016,07,05,04,59,12.60
2016,07,05,05,00,12.60
2016,07,05,05,01,12.60
2016,07,05,05,02,12.60
2016,07,05,05,03,12.60
2016,07,05,05,04,12.70
2016,07,05,05,05,12.70
2016,07,05,05,06,12.70
2016,07,05,05,07,12.70
2016,07,05,05,08,12.70
2016,07,05,05,09,12.70
2016,07,05,05,10,12.70
2016,07,05,05,11,12.70
2016,07,05,05,12,12.70
2016,07,05,05,13,12.70
2016,07,05,05,14,12.70
2016,07,05,05,15,12.70
2016,07,05,05,16,12.70
2016,07,05,05,17,12.70
2016,07,05,05,18,12.70
2016,07,05,05,19,12.70
2016,07,05,05,20,12.70
2016,07,05,05,21,12.70
2016,07,05,05,22,12.80
2016,07,05,05,23,12.80
2016,07,05,05,24,12.80
2016,07,05,05,25,12.80
2016,07,05,05,26,12.80
2016,07,05,05,27,12.80
2016,07,05,05,28,12.80
2016,07,05,05,29,12.80
2016,07,05,05,30,12.80
2016,07,05,05,31,12.80
2016,07,05,05,32,12.80
2016,07,05,05,33,12.80
2016,07,05,05,34,12.80
2016,07,05,05,35,12.80
2016,07,05,05,36,12.80
2016,07,05,05,37,12.70
2016,07,05,05,38,12.80
2016,07,05,05,39,12.70
2016,07,05,05,40,12.70
2016,07,05,05,41,12.70
2016,07,05,05,42,12.70
2016,07,05,05,43,12.70
2016,07,05,05,44,12.70
2016,07,05,05,45,12.70
2016,07,05,05,46,12.70
2016,07,05,05,47,12.70
2016,07,05,05,48,12.70
2016,07,05,05,49,12.70
2016,07,05,05,50,12.70
2016,07,05,05,51,12.70
2016,07,05,05,52,12.70
2016,07,05,05,53,12.70
2016,07,05,05,54,12.70
2016,07,05,05,55,12.70
2016,07,05,05,56,12.70
2016,07,05,05,57,12.70
2016,07,05,05,58,12.60
2016,07,05,05,59,12.60
2016,07,05,06,00,12.60
2016,07,05,06,01,12.60
2016,07,05,06,02,12.60
2016,07,05,06,03,12.60
2016,07,05,06,04,12.60
2016,07,05,06,05,12.60
2016,07,05,06,06,12.60
2016,07,05,06,07,12.60
2016,07,05,06,08,12.60
2016,07,05,06,09,12.60
2016,07,05,06,10,12.60
2016,07,05,06,11,12.60
2016,07,05,06,12,12.60
2016,07,05,06,13,12.60
2016,07,05,06,14,12.60
2016,07,05,06,15,12.60
2016,07,05,06,16,12.60
2016,07,05,06,17,12.60
2016,07,05,06,18,12.60
2016,07,05,06,19,12.60
2016,07,05,06,20,12.50
2016,07,05,06,21,12.50
2016,07,05,06,22,12.60
2016,07,05,06,23,12.50
2016,07,05,06,24,12.50
2016,07,05,06,25,12.50
2016,07,05,06,26,12.50
2016,07,05,06,27,12.50
2016,07,05,06,28,12.50
2016,07,05,06,29,12.50
2016,07,05,06,30,12.50
2016,07,05,06,31,12.60
2016,07,05,06,32,12.60
2016,07,05,06,33,12.60
2016,07,05,06,34,12.60
2016,07,05,06,35,12.60
2016,07,05,06,36,12.60
2016,07,05,06,37,12.60
2016,07,05,06,38,12.60
2016,07,05,06,39,12.60
2016,07,05,06,40,12.60
2016,07,05,06,41,12.60
2016,07,05,06,42,12.60
2016,07,05,06,43,12.60
2016,07,05,06,44,12.60
2016,07,05,06,45,12.60
2016,07,05,06,46,12.60
2016,07,05,06,47,12.60
2016,07,05,06,48,12.60
2016,07,05,06,49,12.60
2016,07,05,06,50,12.60
2016,07,05,06,51,12.60
2016,07,05,06,52,12.60
2016,07,05,06,53,12.70
2016,07,05,06,54,12.70
2016,07,05,06,55,12.70
2016,07,05,06,56,12.70
2016,07,05,06,57,12.70
2016,07,05,06,58,12.70
2016,07,05,06,59,12.70
2016,07,05,07,00,12.70
2016,07,05,07,01,12.70
2016,07,05,07,02,12.70
2016,07,05,07,03,12.70
2016,07,05,07,04,12.70
2016,07,05,07,05,12.70
2016,07,05,07,06,12.70
2016,07,05,07,07,12.70
2016,07,05,07,08,12.70
2016,07,05,07,09,12.70
2016,07,05,07,10,12.70
2016,07,05,07,11,12.80
2016,07,05,07,12,12.80
2016,07,05,07,13,12.80
2016,07,05,07,14,12.80
2016,07,05,07,15,12.80
2016,07,05,07,16,12.80
2016,07,05,07,17,12.80
2016,07,05,07,18,12.80
2016,07,05,07,19,12.80
2016,07,05,07,20,12.80
2016,07,05,07,21,12.80
2016,07,05,07,22,12.80
2016,07,05,07,23,12.80
2016,07,05,07,24,12.80
2016,07,05,07,25,12.80
2016,07,05,07,26,12.80
2016,07,05,07,27,12.80
2016,07,05,07,28,12.80
2016,07,05,07,29,12.80
2016,07,05,07,30,12.80
2016,07,05,07,31,12.80
2016,07,05,07,32,12.80
2016,07,05,07,33,12.80
2016,07,05,07,34,12.80
2016,07,05,07,35,12.80
2016,07,05,07,36,12.90
2016,07,05,07,37,12.90
2016,07,05,07,38,12.90
2016,07,05,07,39,12.90
2016,07,05,07,40,12.90
2016,07,05,07,41,12.90
2016,07,05,07,42,12.90
2016,07,05,07,43,12.90
2016,07,05,07,44,12.90
2016,07,05,07,45,12.90
2016,07,05,07,46,13.00
2016,07,05,07,47,13.00
2016,07,05,07,48,13.00
2016,07,05,07,49,13.00
2016,07,05,07,50,13.00
2016,07,05,07,51,13.00
2016,07,05,07,52,12.90
2016,07,05,07,53,12.90
2016,07,05,07,54,12.90
2016,07,05,07,55,12.90
2016,07,05,07,56,12.90
2016,07,05,07,57,12.90
2016,07,05,07,58,12.90
2016,07,05,07,59,12.90
2016,07,05,08,00,12.90
2016,07,05,08,01,12.90
2016,07,05,08,02,12.90
2016,07,05,08,03,12.90
2016,07,05,08,04,12.90
2016,07,05,08,05,12.90
2016,07,05,08,06,13.00
2016,07,05,08,07,12.90
2016,07,05,08,08,12.90
2016,07,05,08,09,12.90
2016,07,05,08,10,12.90
2016,07,05,08,11,12.90
2016,07,05,08,12,12.90
2016,07,05,08,13,12.90
2016,07,05,08,14,12.90
2016,07,05,08,15,12.90
2016,07,05,08,16,12.90
2016,07,05,08,17,12.90
2016,07,05,08,18,12.90
2016,07,05,08,19,13.00
2016,07,05,08,20,13.00
2016,07,05,08,21,13.00
2016,07,05,08,22,13.00
2016,07,05,08,23,13.00
2016,07,05,08,24,13.00
2016,07,05,08,25,13.10
2016,07,05,08,26,13.10
2016,07,05,08,27,13.10
2016,07,05,08,28,13.20
2016,07,05,08,29,13.20
2016,07,05,08,30,13.20
2016,07,05,08,31,13.20
2016,07,05,08,32,13.20
2016,07,05,08,33,13.30
2016,07,05,08,34,13.30
2016,07,05,08,35,13.30
2016,07,05,08,36,13.30
2016,07,05,08,37,13.30
2016,07,05,08,38,13.30
2016,07,05,08,39,13.40
2016,07,05,08,40,13.40
2016,07,05,08,41,13.40
2016,07,05,08,42,13.50
2016,07,05,08,43,13.50
2016,07,05,08,44,13.60
2016,07,05,08,45,13.60
2016,07,05,08,46,13.60
2016,07,05,08,47,13.60
2016,07,05,08,48,13.60
2016,07,05,08,49,13.60
2016,07,05,08,50,13.70
2016,07,05,08,51,13.70
2016,07,05,08,52,13.70
2016,07,05,08,53,13.70
2016,07,05,08,54,13.80
2016,07,05,08,55,13.80
2016,07,05,08,56,13.80
2016,07,05,08,57,13.80
2016,07,05,08,58,13.90
2016,07,05,08,59,13.90
2016,07,05,09,00,13.90
2016,07,05,09,01,14.00
2016,07,05,09,02,14.00
2016,07,05,09,03,14.10
2016,07,05,09,04,14.10
2016,07,05,09,05,14.10
2016,07,05,09,06,14.20
2016,07,05,09,07,14.20
2016,07,05,09,08,14.20
2016,07,05,09,09,14.30
2016,07,05,09,10,14.30
2016,07,05,09,11,14.30
2016,07,05,09,12,14.30
2016,07,05,09,13,14.30
2016,07,05,09,14,14.30
2016,07,05,09,15,14.30
2016,07,05,09,16,14.30
2016,07,05,09,17,14.30
2016,07,05,09,18,14.30
2016,07,05,09,19,14.30
2016,07,05,09,20,14.20
2016,07,05,09,21,14.20
2016,07,05,09,22,14.20
2016,07,05,09,23,14.20
2016,07,05,09,24,14.20
2016,07,05,09,25,14.20
2016,07,05,09,26,14.20
2016,07,05,09,27,14.20
2016,07,05,09,28,14.30
2016,07,05,09,29,14.30
2016,07,05,09,30,14.40
2016,07,05,09,31,14.40
2016,07,05,09,32,14.40
2016,07,05,09,33,14.50
2016,07,05,09,34,14.60
2016,07,05,09,35,14.60
2016,07,05,09,36,14.60
2016,07,05,09,37,14.60
2016,07,05,09,38,14.70
2016,07,05,09,39,14.60
2016,07,05,09,40,14.60
2016,07,05,09,41,14.60
2016,07,05,09,42,14.60
2016,07,05,09,43,14.60
2016,07,05,09,44,14.60
2016,07,05,09,45,14.60
2016,07,05,09,46,14.70
2016,07,05,09,47,14.70
2016,07,05,09,48,14.80
2016,07,05,09,49,14.80
2016,07,05,09,50,14.90
2016,07,05,09,51,15.00
2016,07,05,09,52,15.00
2016,07,05,09,53,15.00
2016,07,05,09,54,15.10
2016,07,05,09,55,15.10
2016,07,05,09,56,15.10
2016,07,05,09,57,15.00
2016,07,05,09,58,15.00
2016,07,05,09,59,14.90
2016,07,05,10,00,14.90
2016,07,05,10,01,14.90
2016,07,05,10,02,14.90
2016,07,05,10,03,14.90
2016,07,05,10,04,14.90
2016,07,05,10,05,14.90
2016,07,05,10,06,14.90
2016,07,05,10,07,14.90
2016,07,05,10,08,14.80
2016,07,05,10,09,14.80
2016,07,05,10,10,14.80
2016,07,05,10,11,14.70
2016,07,05,10,12,14.70
2016,07,05,10,13,14.70
2016,07,05,10,14,14.70
2016,07,05,10,15,14.70
2016,07,05,10,16,14.70
2016,07,05,10,17,14.70
2016,07,05,10,18,14.70
2016,07,05,10,19,14.70
2016,07,05,10,20,14.70
2016,07,05,10,21,14.70
2016,07,05,10,22,14.70
2016,07,05,10,23,14.70
2016,07,05,10,24,14.70
2016,07,05,10,25,14.70
2016,07,05,10,26,14.70
2016,07,05,10,27,14.70
2016,07,05,10,28,14.70
2016,07,05,10,29,14.70
2016,07,05,10,30,14.70
2016,07,05,10,31,14.70
2016,07,05,10,32,14.70
2016,07,05,10,33,14.70
2016,07,05,10,34,14.70
2016,07,05,10,35,14.60
2016,07,05,10,36,14.60
2016,07,05,10,37,14.60
2016,07,05,10,38,14.60
2016,07,05,10,39,14.60
2016,07,05,10,40,14.50
2016,07,05,10,41,14.50
2016,07,05,10,42,14.40
2016,07,05,10,43,14.40
2016,07,05,10,44,14.30
2016,07,05,10,45,14.30
2016,07,05,10,46,14.30
2016,07,05,10,47,14.30
2016,07,05,10,48,14.30
2016,07,05,10,49,14.30
2016,07,05,10,50,14.20
2016,07,05,10,51,14.20
2016,07,05,10,52,14.20
2016,07,05,10,53,14.20
2016,07,05,10,54,14.20
2016,07,05,10,55,14.20
2016,07,05,10,56,14.20
2016,07,05,10,57,14.20
2016,07,05,10,58,14.20
2016,07,05,10,59,14.20
2016,07,05,11,00,14.20
2016,07,05,11,01,14.20
2016,07,05,11,02,14.20
2016,07,05,11,03,14.20
2016,07,05,11,04,14.20
2016,07,05,11,05,14.30
2016,07,05,11,06,14.30
2016,07,05,11,07,14.30
2016,07,05,11,08,14.30
2016,07,05,11,09,14.30
2016,07,05,11,10,14.30
2016,07,05,11,11,14.30
2016,07,05,11,12,14.30
2016,07,05,11,13,14.40
2016,07,05,11,14,14.40
2016,07,05,11,15,14.40
2016,07,05,11,16,14.40
2016,07,05,11,17,14.50
2016,07,05,11,18,14.50
2016,07,05,11,19,14.50
2016,07,05,11,20,14.60
2016,07,05,11,21,14.60
2016,07,05,11,22,14.60
2016,07,05,11,23,14.70
2016,07,05,11,24,14.70
2016,07,05,11,25,14.70
2016,07,05,11,26,14.70
2016,07,05,11,27,14.70
2016,07,05,11,28,14.70
2016,07,05,11,29,14.70
2016,07,05,11,30,14.80
2016,07,05,11,31,14.80
2016,07,05,11,32,14.80
2016,07,05,11,33,14.80
2016,07,05,11,34,14.80
2016,07,05,11,35,14.80
2016,07,05,11,36,14.80
2016,07,05,11,37,14.90
2016,07,05,11,38,14.90
2016,07,05,11,39,14.90
2016,07,05,11,40,14.90
2016,07,05,11,41,14.90
2016,07,05,11,42,14.90
2016,07,05,11,43,14.90
2016,07,05,11,44,14.90
2016,07,05,11,45,14.90
2016,07,05,11,46,14.90
2016,07,05,11,47,15.00
2016,07,05,11,48,15.00
2016,07,05,11,49,15.00
2016,07,05,11,50,15.00
2016,07,05,11,51,15.10
2016,07,05,11,52,15.10
2016,07,05,11,53,15.20
2016,07,05,11,54,15.30
2016,07,05,11,55,15.30
2016,07,05,11,56,15.40
2016,07,05,11,57,15.40
2016,07,05,11,58,15.50
2016,07,05,11,59,15.50
2016,07,05,12,00,15.50
2016,07,05,12,01,15.50
2016,07,05,12,02,15.50
2016,07,05,12,03,15.50
2016,07,05,12,04,15.50
2016,07,05,12,05,15.50
2016,07,05,12,06,15.50
2016,07,05,12,07,15.60
2016,07,05,12,08,15.60
2016,07,05,12,09,15.60
2016,07,05,12,10,15.60
2016,07,05,12,11,15.70
2016,07,05,12,12,15.80
2016,07,05,12,13,15.80
2016,07,05,12,14,15.90
2016,07,05,12,15,15.90
2016,07,05,12,16,15.90
2016,07,05,12,17,15.90
2016,07,05,12,18,16.00
2016,07,05,12,19,16.00
2016,07,05,12,20,16.00
2016,07,05,12,21,16.00
2016,07,05,12,22,16.00
2016,07,05,12,23,15.90
2016,07,05,12,24,15.90
2016,07,05,12,25,16.00
2016,07,05,12,26,16.00
2016,07,05,12,27,16.00
2016,07,05,12,28,15.90
2016,07,05,12,29,15.90
2016,07,05,12,30,15.80
2016,07,05,12,31,15.70
2016,07,05,12,32,15.60
2016,07,05,12,33,15.60
2016,07,05,12,34,15.60
2016,07,05,12,35,15.60
2016,07,05,12,36,15.60
2016,07,05,12,37,15.60
2016,07,05,12,38,15.60
2016,07,05,12,39,15.60
2016,07,05,12,40,15.60
2016,07,05,12,41,15.60
2016,07,05,12,42,15.70
2016,07,05,12,43,15.70
2016,07,05,12,44,15.70
2016,07,05,12,45,15.70
2016,07,05,12,46,15.70
2016,07,05,12,47,15.70
2016,07,05,12,48,15.70
2016,07,05,12,49,15.70
2016,07,05,12,50,15.70
2016,07,05,12,51,15.80
2016,07,05,12,52,15.90
2016,07,05,12,53,16.00
2016,07,05,12,54,16.00
2016,07,05,12,55,16.10
2016,07,05,12,56,16.10
2016,07,05,12,57,16.10
2016,07,05,12,58,16.10
2016,07,05,12,59,16.10
2016,07,05,13,00,16.10
2016,07,05,13,01,16.10
2016,07,05,13,02,16.10
2016,07,05,13,03,16.10
2016,07,05,13,04,16.00
2016,07,05,13,05,16.00
2016,07,05,13,06,16.10
2016,07,05,13,07,16.10
2016,07,05,13,08,16.10
2016,07,05,13,09,16.10
2016,07,05,13,10,16.10
2016,07,05,13,11,16.10
2016,07,05,13,12,16.10
2016,07,05,13,13,16.00
2016,07,05,13,14,16.00
2016,07,05,13,15,16.00
2016,07,05,13,16,16.00
2016,07,05,13,17,16.00
2016,07,05,13,18,16.10
2016,07,05,13,19,16.20
2016,07,05,13,20,16.20
2016,07,05,13,21,16.30
2016,07,05,13,22,16.30
2016,07,05,13,23,16.30
2016,07,05,13,24,16.40
2016,07,05,13,25,16.30
2016,07,05,13,26,16.30
2016,07,05,13,27,16.30
2016,07,05,13,28,16.30
2016,07,05,13,29,16.30
2016,07,05,13,30,16.30
2016,07,05,13,31,16.30
2016,07,05,13,32,16.30
2016,07,05,13,33,16.30
2016,07,05,13,34,16.30
2016,07,05,13,35,16.30
2016,07,05,13,36,16.40
2016,07,05,13,37,16.40
2016,07,05,13,38,16.50
2016,07,05,13,39,16.60
2016,07,05,13,40,16.60
2016,07,05,13,41,16.70
2016,07,05,13,42,16.70
2016,07,05,13,43,16.80
2016,07,05,13,44,16.80
2016,07,05,13,45,16.80
2016,07,05,13,46,16.80
2016,07,05,13,47,16.70
2016,07,05,13,48,16.70
2016,07,05,13,49,16.70
2016,07,05,13,50,16.70
2016,07,05,13,51,16.70
2016,07,05,13,52,16.70
2016,07,05,13,53,16.70
2016,07,05,13,54,16.70
2016,07,05,13,55,16.70
2016,07,05,13,56,16.80
2016,07,05,13,57,16.80
2016,07,05,13,58,16.80
2016,07,05,13,59,16.90
2016,07,05,14,00,16.90
2016,07,05,14,01,17.00
2016,07,05,14,02,17.10
2016,07,05,14,03,17.20
2016,07,05,14,04,17.30
2016,07,05,14,05,17.40
2016,07,05,14,06,17.50
2016,07,05,14,07,17.60
2016,07,05,14,08,17.70
2016,07,05,14,09,17.80
2016,07,05,14,10,17.90
2016,07,05,14,11,17.90
2016,07,05,14,12,18.00
2016,07,05,14,13,18.00
2016,07,05,14,14,17.90
2016,07,05,14,15,17.90
2016,07,05,14,16,17.90
2016,07,05,14,17,17.90
2016,07,05,14,18,17.90
2016,07,05,14,19,18.00
2016,07,05,14,20,18.10
2016,07,05,14,21,18.20
2016,07,05,14,22,18.30
2016,07,05,14,23,18.30
2016,07,05,14,24,18.30
2016,07,05,14,25,18.30
2016,07,05,14,26,18.40
2016,07,05,14,27,18.40
2016,07,05,14,28,18.50
2016,07,05,14,29,18.60
2016,07,05,14,30,18.60
2016,07,05,14,31,18.60
2016,07,05,14,32,18.60
2016,07,05,14,33,18.60
2016,07,05,14,34,18.70
2016,07,05,14,35,18.70
2016,07,05,14,36,18.80
2016,07,05,14,37,18.80
2016,07,05,14,38,18.90
2016,07,05,14,39,18.90
2016,07,05,14,40,18.90
2016,07,05,14,41,18.90
2016,07,05,14,42,18.90
2016,07,05,14,43,18.90
2016,07,05,14,44,19.00
2016,07,05,14,45,19.00
2016,07,05,14,46,19.10
2016,07,05,14,47,19.10
2016,07,05,14,48,19.20
2016,07,05,14,49,19.30
2016,07,05,14,50,19.30
2016,07,05,14,51,19.30
2016,07,05,14,52,19.30
2016,07,05,14,53,19.30
2016,07,05,14,54,19.40
2016,07,05,14,55,19.50
2016,07,05,14,56,19.50
2016,07,05,14,57,19.40
2016,07,05,14,58,19.30
2016,07,05,14,59,19.20
2016,07,05,15,00,19.20
2016,07,05,15,01,19.20
2016,07,05,15,02,19.20
2016,07,05,15,03,19.30
2016,07,05,15,04,19.30
2016,07,05,15,05,19.30
2016,07,05,15,06,19.40
2016,07,05,15,07,19.40
2016,07,05,15,08,19.30
2016,07,05,15,09,19.30
2016,07,05,15,10,19.30
2016,07,05,15,11,19.30
2016,07,05,15,12,19.30
2016,07,05,15,13,19.30
2016,07,05,15,14,19.30
2016,07,05,15,15,19.30
2016,07,05,15,16,19.40
2016,07,05,15,17,19.40
2016,07,05,15,18,19.30
2016,07,05,15,19,19.30
2016,07,05,15,20,19.30
2016,07,05,15,21,19.20
2016,07,05,15,22,19.20
2016,07,05,15,23,19.10
2016,07,05,15,24,19.10
2016,07,05,15,25,19.10
2016,07,05,15,26,19.20
2016,07,05,15,27,19.20
2016,07,05,15,28,19.20
2016,07,05,15,29,19.30
2016,07,05,15,30,19.30
2016,07,05,15,31,19.30
2016,07,05,15,32,19.40
2016,07,05,15,33,19.40
2016,07,05,15,34,19.50
2016,07,05,15,35,19.60
2016,07,05,15,36,19.70
2016,07,05,15,37,19.60
2016,07,05,15,38,19.60
2016,07,05,15,39,19.60
2016,07,05,15,40,19.60
2016,07,05,15,41,19.50
2016,07,05,15,42,19.50
2016,07,05,15,43,19.60
2016,07,05,15,44,19.60
2016,07,05,15,45,19.70
2016,07,05,15,46,19.70
2016,07,05,15,47,19.70
2016,07,05,15,48,19.60
2016,07,05,15,49,19.60
2016,07,05,15,50,19.60
2016,07,05,15,51,19.60
2016,07,05,15,52,19.70
2016,07,05,15,53,19.70
2016,07,05,15,54,19.80
2016,07,05,15,55,19.80
2016,07,05,15,56,19.80
2016,07,05,15,57,19.90
2016,07,05,15,58,20.00
2016,07,05,15,59,20.00
2016,07,05,16,00,20.00
2016,07,05,16,01,19.90
2016,07,05,16,02,19.80
2016,07,05,16,03,19.80
2016,07,05,16,04,19.80
2016,07,05,16,05,19.80
2016,07,05,16,06,19.90
2016,07,05,16,07,19.90
2016,07,05,16,08,19.90
2016,07,05,16,09,19.80
2016,07,05,16,10,19.80
2016,07,05,16,11,19.80
2016,07,05,16,12,19.90
2016,07,05,16,13,19.90
2016,07,05,16,14,19.90
2016,07,05,16,15,19.90
2016,07,05,16,16,19.80
2016,07,05,16,17,19.80
2016,07,05,16,18,19.70
2016,07,05,16,19,19.70
2016,07,05,16,20,19.70
2016,07,05,16,21,19.70
2016,07,05,16,22,19.70
2016,07,05,16,23,19.80
2016,07,05,16,24,19.90
2016,07,05,16,25,20.00
2016,07,05,16,26,20.00
2016,07,05,16,27,19.90
2016,07,05,16,28,19.80
2016,07,05,16,29,19.80
2016,07,05,16,30,19.80
2016,07,05,16,31,19.80
2016,07,05,16,32,19.80
2016,07,05,16,33,19.80
2016,07,05,16,34,19.70
2016,07,05,16,35,19.70
2016,07,05,16,36,19.80
2016,07,05,16,37,19.80
2016,07,05,16,38,19.90
2016,07,05,16,39,19.90
2016,07,05,16,40,19.90
2016,07,05,16,41,19.80
2016,07,05,16,42,19.80
2016,07,05,16,43,19.80
2016,07,05,16,44,19.90
2016,07,05,16,45,19.90
2016,07,05,16,46,20.00
2016,07,05,16,47,20.00
2016,07,05,16,48,20.10
2016,07,05,16,49,20.20
2016,07,05,16,50,20.30
2016,07,05,16,51,20.30
2016,07,05,16,52,20.30
2016,07,05,16,53,20.40
2016,07,05,16,54,20.30
2016,07,05,16,55,20.30
2016,07,05,16,56,20.20
2016,07,05,16,57,20.20
2016,07,05,16,58,20.20
2016,07,05,16,59,20.20
2016,07,05,17,00,20.20
2016,07,05,17,01,20.20
2016,07,05,17,02,20.30
2016,07,05,17,03,20.30
2016,07,05,17,04,20.30
2016,07,05,17,05,20.20
2016,07,05,17,06,20.20
2016,07,05,17,07,20.10
2016,07,05,17,08,20.00
2016,07,05,17,09,20.10
2016,07,05,17,10,20.10
2016,07,05,17,11,20.20
2016,07,05,17,12,20.10
2016,07,05,17,13,20.10
2016,07,05,17,14,20.10
2016,07,05,17,15,20.10
2016,07,05,17,16,20.10
2016,07,05,17,17,20.10
2016,07,05,17,18,20.20
2016,07,05,17,19,20.30